This is the latest recevied weather packets stored in our database for station/object AE0NK. If no packets are shown the sender has not sent any weather packets the latest 1 day(s).
| Time | Temp. | Humidity | Pressure | Rain* | Wind** | Luminosity | Snow |
|---|---|---|---|---|---|---|---|
| 1778090594 | 11.67° C | 37% | 1016.8 hPa | 0 mm | - | 341 W/m² | - |
| 1778090305 | 11.67° C | 36% | 1016.7 hPa | 0 mm | - | 1136 W/m² | - |
| 1778089103 | 11.11° C | 39% | 1016.9 hPa | 0 mm | - | 371 W/m² | - |
| 1778087893 | 11.11° C | 38% | 1017.1 hPa | 0 mm | - | 1058 W/m² | - |
| 1778086706 | 12.22° C | 37% | 1017.1 hPa | 0 mm | - | 290 W/m² | - |
| 1778086403 | 11.67° C | 37% | 1016.8 hPa | 0 mm | - | 1058 W/m² | - |
| 1778086101 | 11.11° C | 39% | 1016.9 hPa | 0 mm | - | 882 W/m² | - |
| 1778085196 | 10.56° C | 40% | 1016.9 hPa | 0 mm | - | 239 W/m² | - |
| 1778084894 | 11.11° C | 41% | 1016.9 hPa | 0 mm | - | 1011 W/m² | - |
| 1778084611 | 10.56° C | 40% | 1016.9 hPa | 0 mm | - | 900 W/m² | - |
| 1778084309 | 10.56° C | 39% | 1016.9 hPa | 0 mm | - | 879 W/m² | - |
| 1778082492 | 10° C | 42% | 1016.9 hPa | 0 mm | - | 765 W/m² | - |
| 1778080092 | 10° C | 42% | 1017.1 hPa | 0 mm | - | 682 W/m² | - |
| 1778079199 | 9.44° C | 44% | 1017 hPa | 0 mm | - | 582 W/m² | - |
| 1778078896 | 9.44° C | 45% | 1016.8 hPa | 0 mm | - | 592 W/m² | - |
| 1778078292 | 9.44° C | 45% | 1016.7 hPa | 0 mm | - | 578 W/m² | - |
| 1778077404 | 8.89° C | 48% | 1016.6 hPa | 0 mm | - | 541 W/m² | - |
| 1778077102 | 8.33° C | 45% | 1016.6 hPa | 0 mm | - | 244 W/m² | - |
| 1778075000 | 7.22° C | 49% | 1016.5 hPa | 0 mm | - | 360 W/m² | - |
| 1778074699 | 7.22° C | 49% | 1016.6 hPa | 0 mm | - | 276 W/m² | - |
| 1778074092 | 7.22° C | 52% | 1016.5 hPa | 0 mm | - | 199 W/m² | - |
| 1778073808 | 7.22° C | 54% | 1016.5 hPa | 0 mm | - | 158 W/m² | - |
| 1778073505 | 6.67° C | 55% | 1016.5 hPa | 0 mm | - | 134 W/m² | - |
| 1778073201 | 6.67° C | 56% | 1016.4 hPa | 0 mm | - | 107 W/m² | - |
| 1778072596 | 6.67° C | 56% | 1016.3 hPa | 0 mm | - | 127 W/m² | - |
* Rain latest hour (hover to see other rain measurements)
** Current wind speed in m/s (hover to see current wind gust speed)